| time (UTC) | temp F | wind direction | speed MPH | gust MPH | rain 1hr in | rain 24hr in | rain mn in | humidity % | barometer mb |
| 20260904154536 | 80 | 72 | 2.0 | 9.0 | 0.00 | 0.30 | 0.30 | 65 | 1012.2 |
| 20260904153045 | 80 | 231 | 1.0 | 8.0 | 0.00 | 0.30 | 0.30 | 70 | 1012.2 |
| 20260904151533 | 79 | 196 | 2.0 | 7.0 | 0.00 | 0.30 | 0.30 | 69 | 1012.2 |
| 20260904150023 | 79 | 280 | 2.0 | 9.0 | 0.00 | 0.30 | 0.30 | 70 | 1012.3 |
| 20260904144511 | 79 | 72 | 1.0 | 6.0 | 0.00 | 0.30 | 0.30 | 73 | 1012.3 |
| 20260904143111 | 78 | 267 | 4.0 | 12.0 | 0.00 | 0.30 | 0.30 | 74 | 1012.4 |
| 20260904141555 | 78 | 288 | 3.0 | 9.0 | 0.00 | 0.30 | 0.30 | 77 | 1012.4 |
| 20260904140103 | 78 | 198 | 2.0 | 8.0 | 0.00 | 0.30 | 0.30 | 78 | 1012.4 |
| 20260904134534 | 78 | 209 | 0.0 | 4.0 | 0.00 | 0.30 | 0.30 | 80 | 1012.3 |
| 20260904133031 | 78 | 316 | 1.0 | 6.0 | 0.00 | 0.30 | 0.30 | 83 | 1012.3 |
| 20260904131511 | 76 | 145 | 0.0 | 4.0 | 0.00 | 0.30 | 0.30 | 83 | 1012.4 |
| 20260904130018 | 76 | 60 | 0.0 | 1.0 | 0.00 | 0.30 | 0.30 | 86 | 1012.3 |
| 20260904124555 | 75 | 263 | 0.0 | 2.0 | 0.00 | 0.30 | 0.30 | 88 | 1012.3 |
| 20260904123045 | 74 | 38 | 0.0 | 2.0 | 0.00 | 0.30 | 0.30 | 92 | 1012.2 |
| 20260904121524 | 73 | 338 | 0.0 | 0.0 | 0.00 | 0.30 | 0.30 | 94 | 1012.2 |
| 20260904120031 | 72 | 334 | 0.0 | 0.0 | 0.00 | 0.30 | 0.30 | 97 | 1012.2 |
| 20260904114507 | 71 | 217 | 0.0 | 0.0 | 0.00 | 0.30 | 0.30 | 97 | 1012.1 |
| 20260904113006 | 69 | 209 | 0.0 | 0.0 | 0.00 | 0.30 | 0.30 | 97 | 1012.0 |
| 20260904111505 | 68 | 211 | 0.0 | 1.0 | 0.00 | 0.30 | 0.30 | 97 | 1011.9 |
| 20260904110005 | 68 | 211 | 0.0 | 0.0 | 0.00 | 0.30 | 0.30 | 96 | 1011.7 |
| 20260904104506 | 69 | 211 | 0.0 | 1.0 | 0.00 | 0.30 | 0.30 | 96 | 1011.5 |
| 20260904103003 | 69 | 211 | 0.0 | 0.0 | 0.00 | 0.30 | 0.30 | 96 | 1011.4 |
| 20260904101606 | 70 | 211 | 0.0 | 0.0 | 0.00 | 0.30 | 0.30 | 96 | 1011.4 |
| 20260904100059 | 70 | 211 | 0.0 | 0.0 | 0.01 | 0.30 | 0.30 | 97 | 1011.5 |
| 20260904094547 | 70 | 211 | 0.0 | 0.0 | 0.03 | 0.30 | 0.30 | 97 | 1011.5 |
| 20260904093048 | 70 | 211 | 0.0 | 0.0 | 0.19 | 0.30 | 0.30 | 97 | 1011.1 |
| 20260904091546 | 70 | 211 | 0.0 | 3.0 | 0.28 | 0.30 | 0.30 | 96 | 1011.1 |
| 20260904090044 | 70 | 244 | 0.0 | 0.0 | 0.28 | 0.28 | 0.28 | 96 | 1010.5 |
| 20260904084543 | 70 | 146 | 0.0 | 4.0 | 0.27 | 0.27 | 0.27 | 96 | 1010.5 |
| 20260904083041 | 70 | 334 | 0.0 | 6.0 | 0.10 | 0.10 | 0.10 | 96 | 1011.5 |
| 20260904081548 | 70 | 76 | 0.0 | 0.0 | 0.01 | 0.01 | 0.01 | 96 | 1011.1 |
| 20260904080043 | 70 | 75 | 0.0 | 0.0 | 0.00 | 0.01 | 0.00 | 96 | 1011.2 |
| 20260904074526 | 70 | 76 | 0.0 | 0.0 | 0.00 | 0.01 | 0.00 | 96 | 1011.3 |
| 20260904073026 | 70 | 76 | 0.0 | 0.0 | 0.00 | 0.01 | 0.00 | 96 | 1011.2 |
| 20260904071524 | 70 | 76 | 0.0 | 0.0 | 0.00 | 0.01 | 0.00 | 96 | 1011.3 |
| 20260904070024 | 70 | 76 | 0.0 | 0.0 | 0.00 | 0.32 | 0.00 | 96 | 1011.6 |
| 20260904064521 | 70 | 76 | 0.0 | 0.0 | 0.00 | 0.32 | 0.00 | 96 | 1011.7 |
| 20260904063121 | 70 | 75 | 0.0 | 0.0 | 0.00 | 0.32 | 0.00 | 96 | 1011.8 |
| 20260904061536 | 70 | 75 | 0.0 | 0.0 | 0.00 | 0.32 | 0.00 | 96 | 1011.7 |
| 20260904060021 | 70 | 76 | 0.0 | 0.0 | 0.00 | 0.35 | 0.00 | 96 | 1012.0 |
| 20260904054559 | 70 | 75 | 0.0 | 0.0 | 0.00 | 0.35 | 0.00 | 96 | 1012.1 |
| 20260904053103 | 70 | 76 | 0.0 | 0.0 | 0.00 | 0.35 | 0.00 | 96 | 1012.4 |
| 20260904051539 | 70 | 76 | 0.0 | 0.0 | 0.00 | 0.35 | 0.00 | 96 | 1012.5 |
| 20260904050036 | 70 | 76 | 0.0 | 0.0 | 0.00 | 0.35 | 0.00 | 96 | 1012.5 |
| 20260904044535 | 70 | 76 | 0.0 | 0.0 | 0.00 | 0.35 | 0.00 | 96 | 1012.5 |
| 20260904043028 | 70 | 75 | 0.0 | 0.0 | 0.00 | 0.35 | 0.00 | 96 | 1012.8 |
| 20260904041522 | 71 | 75 | 0.0 | 0.0 | 0.00 | 0.35 | 0.00 | 96 | 1012.8 |
| 20260904040018 | 70 | 76 | 0.0 | 0.0 | 0.00 | 0.35 | 0.35 | 95 | 1012.9 |
| 20260904034517 | 70 | 75 | 0.0 | 0.0 | 0.00 | 0.35 | 0.35 | 95 | 1013.0 |
| 20260904033017 | 70 | 75 | 0.0 | 0.0 | 0.00 | 0.35 | 0.35 | 95 | 1013.2 |
| 20260904031517 | 70 | 75 | 0.0 | 0.0 | 0.00 | 0.35 | 0.35 | 95 | 1013.2 |
| 20260904030020 | 70 | 76 | 0.0 | 0.0 | 0.00 | 0.35 | 0.35 | 95 | 1013.4 |
| 20260904024504 | 70 | 75 | 0.0 | 0.0 | 0.00 | 0.35 | 0.35 | 94 | 1013.4 |
| 20260904023004 | 71 | 76 | 0.0 | 0.0 | 0.00 | 0.35 | 0.35 | 94 | 1013.4 |
| 20260904021505 | 71 | 76 | 0.0 | 1.0 | 0.00 | 0.35 | 0.35 | 94 | 1013.2 |
| 20260904020002 | 71 | 62 | 0.0 | 0.0 | 0.00 | 0.35 | 0.35 | 95 | 1013.7 |
| 20260904014503 | 70 | 62 | 0.0 | 0.0 | 0.00 | 0.35 | 0.35 | 94 | 1014.0 |
| 20260904013002 | 71 | 61 | 0.0 | 0.0 | 0.00 | 0.35 | 0.35 | 94 | 1014.0 |
| 20260904011500 | 71 | 61 | 0.0 | 0.0 | 0.00 | 0.35 | 0.35 | 94 | 1013.8 |
| 20260904010101 | 71 | 61 | 0.0 | 0.0 | 0.00 | 0.35 | 0.35 | 93 | 1013.7 |
| 20260904004542 | 72 | 61 | 0.0 | 0.0 | 0.00 | 0.35 | 0.35 | 93 | 1013.7 |
| 20260904003046 | 72 | 62 | 0.0 | 1.0 | 0.00 | 0.35 | 0.35 | 93 | 1013.7 |
| 20260904001524 | 72 | 62 | 0.0 | 0.0 | 0.00 | 0.35 | 0.35 | 93 | 1013.7 |
| 20260904000024 | 72 | 60 | 0.0 | 0.0 | 0.00 | 0.35 | 0.35 | 92 | 1013.2 |
| 20260903234522 | 73 | 60 | 0.0 | 0.0 | 0.00 | 0.35 | 0.35 | 92 | 1013.1 |
| 20260903233013 | 74 | 60 | 0.0 | 0.0 | 0.00 | 0.35 | 0.35 | 91 | 1013.0 |
| 20260903231512 | 75 | 60 | 0.0 | 1.0 | 0.00 | 0.35 | 0.35 | 89 | 1013.1 |
| 20260903230011 | 76 | 60 | 0.0 | 0.0 | 0.00 | 0.35 | 0.35 | 87 | 1013.0 |
| 20260903224522 | 77 | 60 | 0.0 | 1.0 | 0.00 | 0.35 | 0.35 | 86 | 1013.2 |
| 20260903223015 | 78 | 60 | 0.0 | 1.0 | 0.00 | 0.35 | 0.35 | 84 | 1013.3 |
| 20260903221510 | 79 | 149 | 0.0 | 2.0 | 0.00 | 0.35 | 0.35 | 83 | 1013.4 |
| 20260903220008 | 80 | 187 | 0.0 | 0.0 | 0.00 | 0.35 | 0.35 | 81 | 1013.2 |
| 20260903214550 | 81 | 145 | 0.0 | 3.0 | 0.00 | 0.35 | 0.35 | 80 | 1013.3 |
| 20260903213050 | 83 | 141 | 1.0 | 4.0 | 0.00 | 0.35 | 0.35 | 76 | 1013.1 |
| 20260903211533 | 84 | 127 | 0.0 | 0.0 | 0.00 | 0.35 | 0.35 | 78 | 1013.1 |
| 20260903210038 | 81 | 129 | 0.0 | 0.0 | 0.00 | 0.35 | 0.35 | 81 | 1013.1 |
| 20260903204510 | 81 | 129 | 0.0 | 0.0 | 0.00 | 0.35 | 0.35 | 80 | 1013.2 |
| 20260903203021 | 81 | 129 | 0.0 | 0.0 | 0.00 | 0.35 | 0.35 | 79 | 1013.4 |
| 20260903201550 | 83 | 102 | 0.0 | 0.0 | 0.00 | 0.35 | 0.35 | 73 | 1013.3 |
| 20260903200047 | 82 | 336 | 0.0 | 1.0 | 0.00 | 0.35 | 0.35 | 77 | 1013.4 |
| 20260903194528 | 82 | 321 | 0.0 | 2.0 | 0.00 | 0.35 | 0.35 | 76 | 1013.5 |
| 20260903193024 | 80 | 360 | 0.0 | 2.0 | 0.00 | 0.35 | 0.35 | 78 | 1013.6 |
| 20260903191506 | 79 | 322 | 0.0 | 2.0 | 0.00 | 0.35 | 0.35 | 79 | 1013.7 |
| 20260903190002 | 80 | 243 | 0.0 | 1.0 | 0.00 | 0.35 | 0.35 | 78 | 1014.0 |
| 20260903184552 | 80 | 217 | 0.0 | 2.0 | 0.00 | 0.35 | 0.35 | 80 | 1014.1 |
| 20260903183044 | 80 | 126 | 0.0 | 2.0 | 0.00 | 0.35 | 0.35 | 80 | 1014.3 |
| 20260903181523 | 79 | 337 | 1.0 | 4.0 | 0.00 | 0.35 | 0.35 | 78 | 1014.2 |
| 20260903180029 | 79 | 28 | 0.0 | 3.0 | 0.00 | 0.35 | 0.35 | 80 | 1014.4 |
| 20260903174503 | 79 | 245 | 0.0 | 2.0 | 0.00 | 0.35 | 0.35 | 79 | 1014.4 |
| 20260903173004 | 79 | 328 | 2.0 | 7.0 | 0.00 | 0.35 | 0.35 | 78 | 1014.3 |
| 20260903171549 | 79 | 353 | 1.0 | 7.0 | 0.00 | 0.35 | 0.35 | 79 | 1014.5 |
| 20260903170046 | 77 | 319 | 0.0 | 2.0 | 0.00 | 0.35 | 0.35 | 82 | 1014.4 |
| 20260903164542 | 76 | 258 | 0.0 | 2.0 | 0.00 | 0.35 | 0.35 | 83 | 1014.4 |
| 20260903163043 | 76 | 210 | 0.0 | 1.0 | 0.00 | 0.35 | 0.35 | 85 | 1014.9 |
| 20260903161548 | 76 | 229 | 0.0 | 3.0 | 0.00 | 0.35 | 0.35 | 85 | 1015.1 |
| 20260903160039 | 76 | 357 | 0.0 | 3.0 | 0.00 | 0.35 | 0.35 | 86 | 1015.2 |